loading
|

STARLINK-32082, 60346

Orbit data source: Space-Track

STARLINK-32082, 60346 is a payload satellite owned by SpaceX/Seattle (US) in LEO that was launched on Fri, 02 Aug 2024 UTC via an FALCON 9 launch vehicle from the Air Force Eastern Test Range (AFETR). Payloads include a variety of satellites, spacecraft, and rockets equipped with specific instruments for various scientific and technological missions. These include communications satellites like Starlink; space stations such as the ISS; scientific satellites like the Hubble; Earth observation satellites from companies like Planet Labs, Umbra, and HawkEye 360; GPS; miniature CubeSats for education and research; and military/defense satellites.

Loading next visibility...
Loading greatness...
STARLINK-32082 details
Identifier
60346, 2024-136T
Orbit
LEO
Last TLE update8 hours ago
Origin
Flag of USSpaceX/Seattle (US)
ManufacturerSpaceX/Seattle
Mission statusOperational
MissionUnknown
Bus & MotorSTARLINK V2M, Unknown motor
Mass750 kg wet, ~700 kg dry
Launch date (UTC)
2024-08-02 (2 months ago)
Launch vehicle
FALCON 9
Launch site
Air Force Eastern Test Range (AFETR)
Object type
Payload
Rocket body
Debris
Radar Cross SectionLarge (>1 m²)

Expand to show TLE details & history

TLE from 8 hours ago
0 STARLINK-32082
1 60346U 24136T   24261.58560865  .00000076  00000-0  11883-4 0  9991
2 60346  53.1624  55.4309 0000716  86.2811 273.8276 15.39621897  7270
Epoch: 2024-09-17T14:03Z
Definitive object data (Epoch: 2024-09-17T14:03:16.587Z)
Latitude
Longitude-152.38636°
Altitude448.098 km
Speed7.645 km/s
True Right ascension03h 41m 43s
True Declination0° 00' 00"
Sunlit
Object was in full shadow at TLE epoch
Predictive object data (real-time)
Latitude53.23217°
Longitude-59.54172°
Altitude453.291 km
Speed7.647 km/s
Apparent Right ascension06h 03m 02s
Apparent Declination13° 39' 28"
Sunlit
Object is in daylight
Predictive observer data (real-time)
Local Sidereal Time15:03:33
Azimuth312.261° NW
Elevation-22.127°
Doppler factor1
Orbital elements
Apogee447.972 km
Perigee446.995 km
Semi-major axis6,825.621 km
Eccentricity0.0000716
Inclination53.1624°
RAAN55.4309°
Arg. of periapsis86.2811°
True anomaly273.81941°
Mean anomaly273.8276°
Eccentric anomaly273.82351°
Mean motion3.84884 °/min
BSTAR0.000011883
Period93.53 mins
No data available

STARLINK-32082 Visibility forecast

Observer location: 39.9160978°, -105.1181434

STARLINK-32082 is not visible in the next 10 days
Span
Click to sort rows by Start time (UTC) header in descending order
Start Az.
Max El. time (UTC)
Max El. Az.
Max El.
End time (UTC)
End Az.